Terminal Aerodrome Forecast
Issued by NWS Grand Forks, ND

Home | Current Version | Previous Version | Text Only | Print | Product List | Glossary Off
Versions: 1 2 3 4 5 6 7 8 9 10 11 12

329
FTUS43 KFGF 141139
TAFFAR
TAF
KFAR 141139Z 1412/1512 22007KT P6SM SKC=

USA.gov is the U.S. government's official web portal to all federal, state and local government web resources and services.